TimeEDT,TemperatureF,Dew PointF,Humidity,Sea Level PressureIn,VisibilityMPH,Wind Direction,Wind SpeedMPH,Gust SpeedMPH,PrecipitationIn,Events,Conditions,WindDirDegrees,DateUTC
12:54 AM,69.1,63.0,81,30.12,10.0,SE,4.6,-,N/A,,Overcast,130,2013-08-07 04:54:00
1:54 AM,69.1,63.0,81,30.12,10.0,ESE,5.8,-,N/A,,Overcast,120,2013-08-07 05:54:00
2:54 AM,69.1,63.0,81,30.12,10.0,SE,4.6,-,N/A,,Overcast,130,2013-08-07 06:54:00
3:54 AM,69.1,63.0,81,30.12,10.0,SE,3.5,-,N/A,,Overcast,130,2013-08-07 07:54:00
4:54 AM,69.1,63.0,81,30.12,10.0,ESE,4.6,-,0.00,,Overcast,110,2013-08-07 08:54:00
5:54 AM,69.1,64.0,84,30.13,10.0,ESE,5.8,-,0.00,,Overcast,110,2013-08-07 09:54:00
6:54 AM,69.1,64.0,84,30.12,10.0,ESE,5.8,-,N/A,,Overcast,110,2013-08-07 10:54:00
7:06 AM,69.8,64.4,83,30.12,10.0,ESE,5.8,-,N/A,,Overcast,110,2013-08-07 11:06:00
7:54 AM,70.0,64.0,81,30.12,10.0,ESE,5.8,-,N/A,,Overcast,120,2013-08-07 11:54:00
8:54 AM,72.0,64.0,76,30.12,10.0,SSE,6.9,-,N/A,,Overcast,160,2013-08-07 12:54:00
9:54 AM,73.9,64.0,71,30.12,10.0,SSE,9.2,-,N/A,,Overcast,160,2013-08-07 13:54:00
10:54 AM,75.0,64.0,69,30.12,10.0,SSE,11.5,-,N/A,,Overcast,150,2013-08-07 14:54:00
11:29 AM,75.2,64.4,69,30.11,10.0,South,11.5,-,N/A,,Overcast,180,2013-08-07 15:29:00
11:54 AM,75.0,64.9,71,30.12,10.0,South,11.5,-,N/A,,Overcast,170,2013-08-07 15:54:00
12:54 PM,75.0,66.0,73,30.12,10.0,South,6.9,-,N/A,,Overcast,170,2013-08-07 16:54:00
1:20 PM,73.4,66.2,78,30.12,10.0,South,6.9,-,0.01,Rain,Light Rain,170,2013-08-07 17:20:00
1:54 PM,73.0,66.9,81,30.11,10.0,South,9.2,-,0.02,Rain,Light Rain,170,2013-08-07 17:54:00
2:54 PM,73.9,68.0,82,30.10,10.0,South,10.4,-,0.00,,Overcast,170,2013-08-07 18:54:00
3:09 PM,73.4,68.0,83,30.10,3.0,South,9.2,-,0.00,Rain,Light Rain,170,2013-08-07 19:09:00
3:15 PM,73.4,68.0,83,30.09,7.0,South,8.1,-,0.01,Rain,Light Rain,170,2013-08-07 19:15:00
3:27 PM,73.4,69.8,88,30.09,10.0,SSE,6.9,-,0.02,Rain,Light Rain,160,2013-08-07 19:27:00
3:54 PM,73.9,68.0,82,30.09,10.0,South,9.2,-,0.02,,Overcast,170,2013-08-07 19:54:00
4:09 PM,73.4,68.0,83,30.09,10.0,SSE,9.2,-,N/A,,Overcast,150,2013-08-07 20:09:00
4:48 PM,75.2,69.8,83,30.08,10.0,SSE,10.4,-,N/A,,Overcast,150,2013-08-07 20:48:00
4:54 PM,73.9,68.0,82,30.08,10.0,SSE,9.2,-,N/A,,Overcast,160,2013-08-07 20:54:00
5:54 PM,75.0,69.1,82,30.07,10.0,SSE,5.8,-,N/A,,Overcast,150,2013-08-07 21:54:00
6:28 PM,75.2,69.8,83,30.07,10.0,SE,9.2,-,N/A,,Overcast,140,2013-08-07 22:28:00
6:54 PM,75.0,69.1,82,30.06,10.0,SSE,8.1,-,N/A,,Mostly Cloudy,150,2013-08-07 22:54:00
7:07 PM,75.2,69.8,83,30.06,10.0,SSE,6.9,-,N/A,,Overcast,150,2013-08-07 23:07:00
7:40 PM,75.2,69.8,83,30.06,10.0,SE,6.9,-,N/A,,Overcast,140,2013-08-07 23:40:00
7:54 PM,73.9,68.0,82,30.06,10.0,SE,5.8,-,N/A,,Overcast,140,2013-08-07 23:54:00
8:54 PM,73.0,68.0,84,30.06,10.0,SSE,5.8,-,0.00,Rain,Light Rain,150,2013-08-08 00:54:00
9:54 PM,73.9,68.0,82,30.08,10.0,South,4.6,-,0.00,,Overcast,180,2013-08-08 01:54:00
10:54 PM,73.0,68.0,84,30.06,10.0,SSE,5.8,-,N/A,,Overcast,150,2013-08-08 02:54:00
11:54 PM,73.9,66.9,79,30.07,10.0,South,3.5,-,N/A,,Overcast,190,2013-08-08 03:54:00